Regional Weather Roundup
Issued by NWS Sioux Falls, SD

Home | Current Version | Previous Version | Text Only | Print | Product List | Glossary Off
Versions: 1 2 3 4 5 6 7 8 9 10 11 12 13 14 15 16 17 18 19 20 21 22 23 24 25 26 27 28 29 30 31 32 33 34 35 36 37 38 39 40 41 42 43 44 45 46 47 48 49 50

000
ASUS43 KFSD 010610
RWRFSD

WEATHER ROUNDUP FOR SE SOUTH DAKOTA/SW MINNESOTA/NW IOWA
NATIONAL WEATHER SERVICE SIOUX FALLS SD
100 AM CDT TUE SEP 01 2015

NOTE: "FAIR" INDICATES FEW OR NO CLOUDS BELOW 12,000 FEET WITH NO
SIGNIFICANT WEATHER AND OR OBSTRUCTIONS TO VISIBILITY.


SDZ038>040-050-052>070-010700-
SOUTHEAST SOUTH DAKOTA

CITY           SKY/WX    TMP DP  RH WIND       PRES   REMARKS
BROOKINGS      FAIR      72  66  83 S6        29.94R
CHAMBERLAIN    MOCLDY    67  64  90 CALM      29.91F
6HR MIN TEMP:  65; 6HR MAX TEMP:  77;

HURON          MOCLDY    65  63  93 N5        29.89F
6HR MIN TEMP:  63; 6HR MAX TEMP:  76;

MADISON        FAIR      70  70 100 SW5       29.93R
MITCHELL       MOCLDY    67  65  93 N3        29.89F
6HR MIN TEMP:  67; 6HR MAX TEMP:  79;

SIOUX FALLS    FAIR      73  67  81 S8        29.91S
6HR MIN TEMP:  73; 6HR MAX TEMP:  81;

WINNER         FAIR      69  61  75 CALM      29.91F
YANKTON        FAIR      70  66  88 E6        29.88F
$$

MNZ071-072-080-081-089-090-097-098-010700-
SOUTHWEST MINNESOTA

CITY           SKY/WX    TMP DP  RH WIND       PRES   REMARKS
FAIRMONT       FAIR      64  59  82 S5        29.94S
JACKSON        FAIR      68  64  88 S5        29.95S
LUVERNE        FAIR      68  64  88 CALM      29.93S FOG
MARSHALL       FAIR      73  64  73 SW9       29.92S
6HR MIN TEMP:  72; 6HR MAX TEMP:  82;

MONTEVIDEO     FAIR      72  66  83 SW5       29.91S
PIPESTONE      FAIR      72  68  88 S5        29.94S
REDWOOD FALLS  FAIR      70  67  90 SW9       29.91R
TRACY          FAIR      71  68  90 SW8       29.92S
WINDOM         FAIR      70  64  83 CALM      29.94S
WORTHINGTON    FAIR      68  64  88 S7        29.94S
$$

IAZ001>003-012>014-020>022-031-032-NEZ013-014-SDZ071-010700-
NORTHWEST IOWA

CITY           SKY/WX    TMP DP  RH WIND       PRES   REMARKS
CHEROKEE       FAIR      67  67  98 SE3       29.94S
DENISON        CLOUDY    70  68  94 VRB3      29.92F
ESTHERVILLE    FAIR      62  62 100 S6        29.94F FOG
LE MARS        FAIR      66  66 100 CALM      29.93S
ORANGE CITY    FAIR      70  66  88 SE3       29.93F
SHELDON        FAIR      68  66  94 S5        29.92F
SIOUX CITY     FAIR      68  64  87 E5        29.91S
6HR MIN TEMP:  68; 6HR MAX TEMP:  81;

SPENCER        FAIR      65  62  90 CALM      29.94F FOG
6HR MIN TEMP:  64; 6HR MAX TEMP:  78;

STORM LAKE     FAIR      66  66 100 S7        29.95F
$$

ABBREVIATIONS USED IN REMARKS
   TC - TEMPERATURE IN CELSIUS
  WCI - WIND CHILL INDEX
   HX - HEAT INDEX
  VSB - VISIBILITY




USA.gov is the U.S. government's official web portal to all federal, state and local government web resources and services.